Location: ???????
(55.4362°N, 38.1183°E)
Time: 18:20:03
(UTC+00:00)

Cosmos 2278 Rocket - Pass Details

Date: 24 October 2021
Orbit: 841 x 845 km, 71.0° (Epoch: 28 November)

Event Time Altitude Azimuth Distance (km) Brightness Sun altitude
Rises 16:00:56 0° 323° (NW) 3,419 6.0 -16.8°
Reaches altitude 10° 16:03:36 10° 332° (NNW) 2,480 5.0 -17.2°
Maximum altitude 16:08:51 37° 39° (NE) 1,308 2.9 -17.9°
Enters shadow 16:10:37 30° 76° (ENE) 1,489 2.9 -18.2°
